Theta_e
311 312 311 311 311 310 310 310 310 310 310 310 310 310 311 311 311 311 311 311 312 311 311 312 311 312 311 311 311 308 310 304 303 300 298 301 307 313 314 317 319 318 319 313 309 305 300 296 298 299 295 295 293 293 292 298 296 295 290 285 285 284 286 288 290 290 290 292 293 293 293 294 293 293 298 303 310 321 322 326 328 332 331 332 332 333 333 333
311 311 311 311 311 310 310 310 310 311 312 310 309 310 309 309 310 310 310 311 311 311 311 311 312 312 311 311 310 310 307 303 299 298 298 307 314 317 321 323 323 322 317 307 304 302 300 296 296 296 294 293 296 292 296 293 298 292 286 286 288 287 291 292 291 292 291 293 292 294 293 293 294 296 297 297 294 317 318 322 327 327 329 331 331 331 331 332
311 311 311 311 310 310 310 311 311 312 312 312 312 310 310 310 310 310 310 311 311 311 311 311 312 311 311 310 309 309 305 299 298 294 299 315 320 319 319 321 322 325 314 305 305 303 299 296 295 296 293 292 294 291 295 292 297 292 287 286 289 289 292 291 291 293 292 293 295 295 294 294 295 296 298 297 296 312 315 319 324 325 325 327 329 330 330 330
310 310 310 310 310 310 310 311 311 311 311 311 311 311 312 311 310 310 310 310 311 311 311 311 312 311 310 310 310 307 301 298 289 294 301 319 316 317 319 319 327 324 315 307 305 304 303 299 297 296 293 292 292 295 292 293 293 292 291 287 289 290 291 293 292 293 293 294 295 293 293 294 295 297 297 294 297 297 309 319 324 324 327 327 329 329 330 329
310 310 310 310 310 310 311 311 311 311 311 311 311 311 311 311 311 310 310 310 311 311 310 310 311 312 311 310 309 303 298 281 285 301 310 317 315 316 317 317 323 319 313 308 308 307 301 298 294 294 293 289 291 293 291 293 294 293 292 292 288 290 292 294 294 293 293 294 294 292 293 294 296 298 294 294 294 290 296 307 325 330 330 328 328 329 330 329
310 310 310 310 311 311 311 311 311 311 311 310 311 311 311 311 311 310 310 311 310 310 310 309 309 310 310 310 303 300 292 275 293 297 312 315 313 313 314 315 316 312 309 304 301 298 297 294 293 290 289 290 291 290 289 294 296 291 292 293 290 291 293 293 293 293 293 294 294 294 294 296 294 296 295 295 295 294 296 299 325 331 332 331 331 330 329 328
309 310 310 310 310 310 311 311 311 311 310 310 310 310 310 310 311 311 311 311 310 309 310 309 309 310 309 309 300 298 291 291 296 299 312 314 311 311 312 310 311 305 307 302 299 295 294 291 292 288 288 289 288 290 292 293 296 293 290 291 294 293 293 293 295 295 292 292 293 293 296 296 294 294 295 295 294 295 300 312 329 332 332 332 330 330 329 329
310 310 310 310 310 310 310 310 310 310 310 310 310 310 310 310 310 310 311 310 310 310 309 309 308 309 309 301 294 290 290 290 298 302 309 311 303 303 305 301 302 301 299 299 298 295 293 291 291 290 289 289 288 292 292 292 293 292 291 292 293 293 294 295 295 294 293 291 292 295 295 294 294 295 295 296 297 312 330 333 333 333 332 331 330 329 329 328
310 310 310 310 310 310 310 310 310 310 310 310 310 310 310 310 309 309 309 310 309 309 308 308 308 309 309 301 293 287 285 294 299 302 302 300 299 299 298 297 300 299 298 298 297 296 295 291 290 292 288 289 291 291 291 291 289 292 292 293 295 295 293 293 294 293 293 294 294 295 292 292 294 296 295 297 312 330 333 332 332 332 331 330 329 329 328 328
309 309 309 309 309 310 310 310 310 310 310 310 310 310 309 309 309 309 309 309 310 309 308 308 307 308 304 296 293 284 291 298 301 301 301 300 300 299 297 298 299 299 297 297 298 296 295 293 293 293 292 291 292 291 289 292 289 292 293 294 293 294 294 295 293 293 293 294 293 294 293 293 294 295 290 301 320 332 332 331 332 331 330 330 329 329 329 329
309 309 309 309 309 309 309 309 309 309 309 309 309 309 309 308 309 309 309 309 309 309 308 308 307 305 300 298 289 285 298 298 301 301 301 300 299 297 296 297 298 298 298 297 297 298 296 295 294 296 294 290 291 290 291 291 293 292 293 292 293 294 294 294 293 292 293 294 293 294 293 294 293 294 293 296 327 333 330 330 330 330 330 330 330 329 330 329
309 309 309 309 309 309 309 309 309 309 309 309 308 308 308 308 308 308 308 309 309 309 308 307 307 303 300 296 292 291 301 300 302 302 301 300 298 298 298 298 299 299 298 295 297 299 299 297 296 294 288 293 289 292 291 292 292 291 292 289 289 290 291 291 293 294 293 293 293 293 293 291 292 291 293 308 330 332 330 329 329 330 330 330 330 329 328 328
309 309 309 309 309 309 309 309 309 309 308 308 308 307 307 306 307 308 308 307 308 308 308 307 306 302 298 288 292 301 304 304 302 301 301 301 299 300 299 299 299 300 300 297 296 299 300 299 297 293 293 292 288 287 293 294 292 292 291 288 289 289 287 291 291 292 292 293 292 294 286 283 288 292 297 323 330 331 329 329 329 329 330 329 328 327 327 328
309 309 309 309 309 309 308 309 308 308 308 308 308 308 307 306 306 307 307 307 308 308 307 307 303 299 295 289 296 299 301 302 301 300 299 301 297 296 297 298 300 300 301 299 299 300 299 299 296 295 296 291 289 294 292 290 290 287 288 288 283 284 282 287 292 290 292 292 293 295 286 284 288 290 294 321 330 329 326 328 328 327 328 328 327 327 326 326
309 309 308 309 309 309 308 308 308 308 308 308 308 307 306 306 306 306 307 307 307 307 307 306 302 295 289 290 298 300 306 304 298 298 300 297 295 294 294 297 297 297 299 300 299 300 300 299 296 292 288 294 294 290 285 284 283 286 286 283 284 285 280 284 290 291 292 293 293 293 287 288 290 292 297 324 328 326 325 327 328 326 326 327 326 326 326 326
308 308 308 308 308 308 308 308 308 308 308 308 307 306 306 306 306 306 306 306 307 306 304 298 297 295 289 283 290 304 298 292 292 297 298 299 296 293 296 296 297 299 299 298 301 301 300 297 292 290 292 290 288 283 282 281 285 284 285 280 282 282 283 286 291 290 294 291 292 293 283 283 289 291 299 324 327 325 325 325 326 326 326 326 326 326 326 325
308 308 308 308 308 308 308 308 307 308 307 307 307 306 306 306 306 306 305 305 303 304 300 294 297 298 283 293 299 291 290 293 296 296 296 299 297 296 297 296 296 297 298 298 299 298 296 294 294 292 292 285 284 285 281 280 277 280 280 279 280 283 282 283 285 289 291 293 289 290 289 287 289 295 299 319 325 324 323 324 325 325 326 326 325 325 325 325
308 308 308 308 308 307 307 307 307 307 307 307 306 305 303 305 305 304 302 302 300 299 298 300 296 289 284 293 286 288 291 292 294 296 296 298 297 297 296 295 296 296 296 295 295 293 294 290 291 284 286 286 285 284 282 279 281 278 280 281 282 283 285 286 285 288 289 290 290 288 288 290 290 294 305 313 324 323 322 323 324 325 325 325 325 324 324 324
308 308 307 307 307 307 307 307 308 307 307 307 305 305 304 303 296 295 295 294 288 282 280 284 287 275 275 282 288 289 290 295 297 295 293 295 300 299 298 299 297 294 290 290 289 293 290 288 289 283 283 284 284 285 283 282 284 282 282 282 279 282 282 283 286 289 291 287 287 287 287 289 290 289 306 311 323 321 322 324 324 325 325 325 324 324 324 324
307 308 307 307 307 307 307 307 307 307 307 302 297 295 291 289 287 284 295 294 287 285 284 287 289 287 287 287 287 291 297 296 291 292 295 297 296 296 295 295 294 293 289 286 287 290 290 284 283 283 285 285 285 286 286 284 286 285 283 283 282 281 281 283 284 287 290 288 287 287 288 289 290 290 303 314 322 319 321 321 322 323 323 323 323 323 323 322
308 307 307 307 307 307 307 307 307 306 307 297 293 287 284 286 283 282 288 289 291 292 289 289 290 288 287 290 292 291 288 290 292 292 294 299 295 293 290 293 290 286 287 287 286 289 290 283 284 285 285 286 286 286 287 285 284 284 283 283 282 282 283 285 288 290 289 290 286 287 288 289 290 291 305 314 319 317 319 319 320 322 323 323 322 321 322 323
307 307 307 306 307 307 306 307 306 306 304 293 291 288 290 289 293 296 293 284 290 291 291 291 292 289 293 292 294 294 292 286 288 290 294 295 291 288 289 290 287 285 287 288 287 284 284 283 285 285 286 287 286 286 287 287 284 284 282 281 281 282 282 285 286 288 290 289 286 285 287 288 289 289 305 312 316 318 320 321 320 321 322 322 322 322 322 322
307 307 307 307 306 307 306 306 306 304 291 290 290 291 290 295 298 301 297 290 286 292 290 289 287 288 289 293 293 294 286 284 282 288 291 295 290 290 290 287 286 286 287 288 284 282 280 283 286 287 286 286 285 286 286 286 286 283 282 280 280 281 283 281 286 287 290 290 286 285 287 286 300 307 306 308 313 313 320 321 321 322 321 321 321 322 322 322
307 307 307 307 306 306 306 306 304 295 290 292 291 291 296 297 298 299 293 284 283 287 289 290 289 288 288 287 292 291 287 286 286 285 294 293 288 291 290 288 286 286 285 287 286 282 281 285 289 288 287 287 284 285 285 284 283 284 283 279 281 283 283 282 284 286 287 289 287 285 284 282 292 301 302 306 309 309 315 320 321 322 322 323 322 322 323 323
307 307 307 307 306 307 306 306 293 293 295 294 292 296 297 298 297 300 290 285 285 284 291 290 292 290 291 296 294 288 288 288 289 291 294 293 289 289 287 291 288 284 286 286 285 284 284 287 289 288 286 286 285 283 285 285 280 282 283 284 283 283 285 284 285 284 281 285 284 288 280 279 280 291 300 303 307 307 309 315 317 320 321 322 321 321 322 323
306 307 307 307 306 306 306 297 289 293 295 292 294 298 298 299 299 300 290 279 275 282 287 280 292 286 296 287 290 288 289 282 290 291 294 293 297 290 291 288 289 283 285 285 285 284 284 288 289 288 286 285 285 284 284 287 281 281 282 285 285 284 285 285 286 284 279 279 286 288 282 276 278 291 298 305 307 308 310 313 315 318 320 321 321 322 321 321
306 306 306 306 305 306 298 292 297 298 292 293 297 298 298 301 300 298 282 274 271 284 281 286 287 287 292 289 289 289 273 277 291 293 292 296 291 295 286 285 288 289 288 288 284 282 287 287 286 288 287 285 284 283 284 287 283 280 283 286 286 285 284 284 285 283 278 283 285 284 283 279 278 282 294 304 306 307 309 311 313 316 318 319 321 322 322 322
306 306 306 306 305 304 299 301 299 295 294 296 299 299 299 300 300 296 281 266 266 289 283 288 289 295 290 290 291 284 282 287 281 286 293 295 295 289 287 284 286 286 288 287 278 285 288 285 285 285 286 285 284 285 285 287 284 281 285 287 286 286 284 283 285 282 282 283 280 278 286 281 277 283 302 306 304 306 307 309 311 314 317 319 320 322 323 323
305 306 306 304 304 305 304 301 298 295 299 299 298 299 301 299 294 282 274 266 283 284 300 285 301 293 291 290 287 287 285 288 282 287 293 294 295 290 284 286 286 287 288 288 282 284 288 289 287 287 286 284 286 286 287 288 285 286 286 287 287 286 285 286 283 284 282 280 275 280 283 279 277 283 301 307 304 303 305 309 311 313 316 318 319 321 322 323
306 305 305 304 304 302 301 302 298 302 301 299 299 299 299 294 286 274 267 265 286 275 288 289 288 285 289 283 283 286 283 285 288 288 290 288 290 292 290 292 287 286 285 288 285 284 287 294 293 289 286 287 289 287 288 288 288 286 288 286 283 283 284 285 281 282 279 274 277 281 282 282 278 281 296 300 302 306 306 307 311 313 315 317 319 320 321 322
305 305 304 305 299 300 301 295 298 302 302 300 299 298 291 284 277 269 265 274 284 281 290 288 284 291 285 281 281 285 285 286 287 287 284 289 286 288 288 287 289 284 282 283 284 287 287 288 289 288 293 291 292 287 288 291 288 289 284 283 282 281 279 282 279 279 275 270 276 279 284 282 278 276 290 304 307 308 307 306 309 311 312 315 318 320 321 322
304 304 304 302 302 304 296 295 299 301 300 299 297 291 281 268 274 268 270 289 274 278 280 282 286 285 284 286 284 284 281 285 287 285 283 284 283 282 282 279 283 277 277 279 279 285 283 283 286 289 296 291 289 287 285 288 286 287 284 283 281 274 274 272 277 273 271 274 279 279 283 281 280 283 288 300 306 308 310 309 309 311 312 314 317 319 321 322
304 304 305 303 303 301 303 303 302 300 301 299 292 284 272 266 264 272 274 279 274 281 280 286 285 285 284 283 281 283 285 281 287 286 287 286 284 283 284 284 283 282 275 280 279 280 281 285 286 287 289 294 291 285 282 282 284 284 284 281 278 273 272 268 270 271 274 278 280 280 283 280 280 285 289 291 296 308 311 312 311 311 312 314 317 319 320 321
304 304 300 301 301 302 304 305 302 302 299 296 287 280 273 269 269 284 274 278 279 287 287 285 285 286 285 280 282 284 278 284 285 284 286 283 284 281 282 285 285 283 278 281 278 279 275 276 282 285 283 292 291 290 288 283 283 283 283 284 279 274 272 267 273 270 274 277 279 281 281 277 280 286 298 298 299 301 310 310 310 312 313 315 318 319 320 321
304 302 299 298 299 302 304 306 303 303 297 290 284 277 271 271 274 269 270 278 282 285 281 287 282 282 282 283 284 284 283 280 286 285 284 283 281 282 281 282 285 286 283 279 280 279 280 279 282 288 288 291 289 290 289 286 284 284 283 284 280 282 277 275 274 276 276 278 276 280 278 281 285 288 296 303 302 304 310 310 312 312 314 316 317 318 319 320
301 298 299 295 299 303 305 305 303 301 295 288 280 275 272 276 272 278 277 286 286 282 283 284 284 280 281 281 282 282 287 283 284 284 283 284 284 282 284 285 284 286 282 277 280 277 280 278 284 289 288 290 290 291 289 290 280 283 284 282 283 285 281 274 274 279 275 275 274 274 281 283 284 289 292 304 304 306 308 310 311 311 313 315 315 317 319 320
297 298 294 297 302 306 305 304 303 299 294 286 279 274 279 280 282 282 286 283 284 284 282 277 279 278 278 277 277 281 282 285 283 283 279 285 280 283 284 285 288 286 287 281 281 281 279 278 284 287 285 288 292 293 290 291 288 284 281 281 286 288 285 280 275 271 269 271 271 278 279 280 281 281 293 300 304 307 308 308 310 310 312 313 315 317 318 319
296 296 297 298 303 306 306 304 302 297 292 284 278 281 284 280 287 284 290 288 287 286 282 280 281 282 278 278 277 279 282 280 281 282 280 283 280 286 284 284 288 288 288 289 282 282 284 278 282 287 288 288 290 292 288 289 290 288 286 287 286 277 278 278 275 272 271 271 269 279 278 277 279 282 288 294 301 305 308 309 310 311 312 314 316 317 319 320
295 294 292 300 306 306 305 304 300 294 287 281 279 279 284 284 288 288 289 289 289 285 281 282 280 282 280 278 279 283 282 277 281 281 279 282 278 284 284 286 286 288 289 289 284 282 285 277 280 285 288 287 288 289 281 285 287 289 289 287 287 282 277 278 278 276 279 270 270 275 277 279 283 282 290 295 301 305 308 309 310 312 313 314 316 317 318 319
292 290 289 302 306 306 305 303 296 291 284 279 281 282 287 284 287 290 290 289 286 284 283 282 284 281 282 281 282 278 282 280 280 281 282 283 281 287 285 289 285 287 288 290 286 288 280 281 274 282 288 287 282 285 285 285 283 282 283 282 284 286 284 283 282 281 279 269 267 271 274 277 282 286 291 295 300 306 309 309 310 312 313 315 316 317 318 319
295 289 290 304 305 306 304 297 289 284 282 285 286 284 286 284 287 289 291 293 290 292 286 285 285 282 283 280 280 283 281 282 280 279 282 283 283 276 286 288 288 286 287 287 286 285 281 280 277 281 282 282 284 287 286 287 288 284 282 280 282 280 280 280 276 279 278 280 273 271 274 277 285 292 295 297 300 307 310 310 309 311 314 315 316 318 318 319
291 285 289 305 305 305 296 286 285 287 285 283 282 287 285 292 288 289 290 292 291 288 292 287 287 285 285 284 282 280 283 281 282 281 283 281 284 282 284 289 289 287 286 281 283 286 284 282 279 278 282 282 284 287 289 290 289 286 287 283 285 282 280 278 272 277 280 280 280 278 273 281 287 291 295 298 301 304 306 308 307 310 314 315 317 318 319 320
290 287 298 304 305 302 293 284 287 285 284 287 291 290 291 289 288 290 288 289 288 291 288 286 286 284 286 281 284 282 284 280 282 280 283 284 284 286 285 287 289 287 288 285 287 288 296 283 279 279 281 286 286 287 289 290 289 285 286 284 284 284 282 280 276 277 280 279 279 277 276 274 284 292 294 296 299 304 307 309 308 310 312 315 316 317 318 319
290 290 291 302 306 302 289 281 282 284 285 288 289 287 291 288 287 286 286 288 287 288 286 285 284 288 282 285 285 283 286 276 284 284 284 286 284 288 287 287 290 288 288 285 285 291 282 281 280 276 277 280 283 285 285 287 288 284 283 284 285 284 283 282 281 280 279 279 281 277 274 273 285 293 295 298 303 306 307 306 309 309 311 314 316 317 318 319
290 293 293 296 302 298 285 286 284 283 284 284 284 283 285 286 288 289 288 287 290 289 288 287 287 288 286 289 286 288 288 283 280 286 287 288 286 289 287 288 290 288 291 295 299 293 285 281 280 274 275 273 273 274 277 280 283 282 284 284 284 285 284 284 280 280 278 280 280 277 273 281 285 291 296 300 302 301 304 306 306 309 311 313 314 316 317 318
288 281 286 288 295 294 291 292 287 284 283 283 282 284 285 284 288 289 290 288 289 289 288 288 289 291 288 288 285 284 285 289 285 281 284 284 285 289 288 288 289 290 295 300 301 293 287 287 285 280 278 278 278 281 284 284 282 282 281 285 284 284 286 285 280 278 279 276 279 279 282 282 288 292 293 297 300 303 304 306 307 308 310 312 314 316 317 318
290 283 284 283 288 291 287 287 285 285 283 286 281 284 282 284 286 287 291 285 291 288 288 287 287 285 286 286 282 282 285 285 288 286 285 286 286 287 291 288 289 293 299 297 300 291 288 283 284 284 282 283 282 282 285 288 283 281 282 283 284 285 284 284 280 278 282 282 277 280 282 287 288 289 292 294 298 300 302 303 306 308 309 312 314 316 314 318
284 288 289 291 284 282 283 284 285 285 286 286 283 286 283 284 285 284 288 290 290 290 284 286 287 286 287 285 285 281 282 283 285 281 287 288 288 290 288 290 288 294 298 295 299 292 287 282 283 285 284 285 285 284 286 287 286 283 284 283 283 284 283 284 283 281 285 281 280 283 284 287 287 290 293 295 298 301 302 303 305 308 310 312 314 315 316 318
290 289 288 293 283 286 285 286 287 285 284 286 284 285 283 285 284 287 287 285 284 286 288 279 281 284 286 288 284 280 282 279 280 285 286 286 288 287 283 286 290 293 295 292 293 292 289 283 285 286 285 286 285 285 285 287 283 284 284 284 284 283 284 285 284 281 286 285 283 283 286 289 291 291 294 297 300 301 304 307 309 309 310 312 314 315 316 318
284 284 283 289 288 286 286 287 286 285 284 288 284 286 285 285 284 288 289 286 283 287 288 282 286 287 286 287 286 284 286 285 283 281 286 286 286 286 286 287 287 292 293 291 292 294 288 281 290 285 284 285 287 287 285 286 285 284 283 284 284 285 284 283 283 283 287 285 286 284 286 288 292 292 296 300 301 307 308 308 308 309 310 312 313 315 316 317
291 292 291 285 282 284 288 288 286 285 284 286 284 286 286 287 287 290 291 293 288 286 287 286 290 292 293 291 289 287 290 291 290 290 291 291 285 291 289 289 293 288 289 290 291 293 289 281 285 283 281 281 286 284 283 285 286 284 282 281 282 283 283 282 283 285 285 285 286 288 289 289 290 300 301 301 305 307 306 307 308 309 310 311 313 315 316 317
293 294 293 289 282 287 284 287 287 287 284 285 285 286 286 287 290 292 288 292 290 291 292 293 293 292 292 291 289 290 291 294 295 296 295 295 295 295 296 296 294 289 287 289 291 287 286 283 282 276 279 275 283 284 283 283 283 281 280 283 283 283 282 283 285 287 286 287 286 283 287 291 291 299 300 300 302 303 305 307 308 310 310 312 313 314 316 317
Wind_Speed
16 16 16 15 15 15 14 14 14 13 12 12 13 13 14 15 16 17 18 18 17 17 17 17 17 17 16 17 19 19 19 9 12 9 9 13 8 13 17 18 20 14 6 0 2 2 3 2 2 0 4 3 1 1 3 0 1 2 3 4 5 4 7 6 9 10 3 5 5 5 4 2 1 3 1 0 5 3 2 5 2 7 9 5 8 15 15 14
15 15 15 15 15 15 16 15 15 16 16 13 13 13 13 15 15 16 17 18 17 18 17 17 18 17 16 16 19 19 14 9 12 11 14 14 13 16 16 18 19 16 8 3 2 1 1 1 1 4 4 3 0 2 3 2 2 5 2 4 11 6 5 9 5 6 4 6 3 1 2 4 1 1 2 3 4 2 2 4 3 8 10 12 12 14 15 15
15 15 15 15 15 15 16 17 17 17 15 15 16 15 14 14 15 16 16 16 17 17 17 18 18 18 16 16 18 18 10 10 7 9 11 7 13 8 12 15 13 14 10 5 3 3 3 2 4 5 3 4 1 4 2 3 5 4 5 7 8 4 4 5 4 6 6 1 1 0 0 0 1 1 1 2 2 1 3 2 1 5 8 13 13 12 13 13
15 15 14 15 15 15 16 15 15 15 15 15 15 15 16 16 14 15 15 16 16 16 16 18 18 18 16 16 16 9 6 7 5 4 3 6 10 13 16 19 14 7 8 5 3 3 1 0 0 5 2 3 2 1 5 5 4 2 3 5 6 5 5 5 5 6 6 2 0 2 1 4 2 0 1 2 2 2 4 5 5 8 12 14 13 13 12 12
15 14 14 15 15 15 15 15 14 15 14 14 15 15 14 16 16 15 15 15 15 15 16 17 18 17 17 15 14 5 8 4 2 2 3 12 13 17 19 19 17 4 10 5 4 1 2 3 3 1 3 4 1 2 3 4 3 3 7 3 2 2 4 7 8 6 4 4 0 0 2 4 1 0 2 4 1 5 1 3 9 11 14 18 18 14 13 12
15 15 15 15 15 15 15 15 15 15 15 15 15 15 15 15 16 16 16 14 15 15 15 16 16 17 16 13 6 2 1 3 1 3 8 15 16 18 20 17 17 4 3 7 5 3 4 2 3 3 2 3 6 8 2 5 3 6 2 4 3 4 5 2 4 5 4 4 3 2 3 0 2 1 1 3 4 3 3 2 9 10 12 14 13 15 14 15
15 15 15 15 15 16 15 15 15 15 15 16 16 16 16 16 16 17 16 15 14 15 14 15 15 17 14 8 4 2 2 11 5 7 15 15 15 18 19 12 14 4 0 3 3 4 5 3 4 3 4 2 3 5 3 3 2 3 5 0 6 5 7 3 2 2 4 7 5 3 1 1 1 5 0 0 3 3 4 4 7 14 15 16 15 14 17 18
15 15 15 16 16 15 16 16 15 15 15 16 16 17 16 17 17 17 17 15 14 13 14 14 14 16 11 3 4 2 5 11 15 5 13 13 12 14 16 5 10 7 1 2 7 4 5 6 7 3 3 8 3 8 3 3 1 7 5 2 2 3 5 5 5 2 1 3 4 2 1 4 2 2 2 6 3 0 5 11 13 14 15 12 14 16 16 13
15 15 15 15 15 15 15 15 15 15 16 16 16 17 17 17 17 17 17 17 15 13 12 13 13 14 9 1 1 7 9 7 5 5 6 9 10 13 10 7 8 6 3 2 3 4 6 5 4 5 5 5 3 4 2 6 7 4 6 2 3 4 3 4 2 3 2 2 3 1 3 5 7 2 2 7 3 6 9 13 15 15 15 14 15 15 14 11
15 15 15 15 15 15 15 15 16 16 17 17 18 17 17 17 18 17 16 16 16 13 12 12 11 12 4 1 1 2 7 4 3 5 7 9 13 14 8 1 6 5 4 6 5 0 4 4 6 3 2 1 3 4 2 8 5 5 7 7 5 6 4 2 3 2 1 2 3 3 1 3 1 5 4 2 6 10 11 13 13 16 17 15 12 9 7 11
16 16 16 16 16 16 15 16 16 17 16 17 17 17 18 18 17 17 16 15 15 15 12 10 10 8 5 1 3 8 4 5 1 6 11 12 13 10 10 8 5 3 0 2 1 2 3 1 2 0 1 4 4 4 2 2 1 3 4 2 6 8 7 4 2 3 1 3 4 5 4 3 2 1 6 3 5 12 16 14 14 13 15 13 12 11 10 10
16 17 17 16 16 16 16 16 16 16 17 18 17 19 18 17 18 16 16 15 15 14 12 10 10 2 5 8 10 13 3 5 8 10 11 10 10 9 9 8 5 4 1 1 4 4 3 3 1 0 4 2 2 0 2 3 2 2 5 3 3 5 5 5 9 5 3 4 2 5 1 5 0 3 7 6 8 11 15 16 15 13 11 11 12 11 11 12
17 17 17 18 17 17 17 16 16 16 16 18 19 19 18 18 17 17 16 15 12 14 12 11 7 1 3 11 15 18 15 17 16 15 15 9 8 7 8 8 7 6 4 2 3 0 1 0 0 1 2 0 1 4 1 1 1 1 1 3 1 1 5 7 3 3 6 3 7 5 6 5 6 8 1 7 11 12 14 13 13 10 10 9 10 10 9 7
17 17 18 18 17 17 17 17 17 17 17 17 18 20 19 18 18 16 16 14 14 13 11 11 3 0 4 12 5 3 7 7 10 13 14 6 4 5 3 6 6 5 5 6 5 4 6 3 3 4 1 2 2 3 1 2 1 6 2 2 5 3 5 2 5 6 7 4 8 5 5 6 6 9 5 4 14 17 14 14 12 11 10 10 11 10 11 10
18 18 18 18 18 17 17 17 17 18 18 18 18 20 17 17 17 16 15 12 12 11 12 5 0 1 4 10 6 11 18 8 6 12 10 5 4 6 2 1 0 3 5 7 2 2 3 2 1 2 2 2 4 3 4 1 2 1 6 8 0 8 5 5 3 9 10 1 7 5 5 8 6 9 3 7 9 13 14 14 13 9 8 11 10 11 10 9
18 18 18 18 18 18 17 17 17 17 17 19 19 20 19 19 18 17 16 12 12 11 2 0 1 3 5 11 5 5 1 2 5 6 4 5 2 4 4 5 5 4 3 3 6 3 2 2 2 4 1 3 3 4 2 1 2 1 7 0 7 4 4 3 3 6 10 4 1 9 5 2 5 8 6 8 10 9 13 11 13 12 11 11 11 11 9 7
18 18 18 17 17 17 17 17 17 17 17 17 20 19 18 19 19 17 14 12 6 2 2 1 1 2 4 5 3 4 3 3 3 2 6 3 6 5 1 3 1 1 1 1 3 3 2 3 1 1 1 3 4 5 3 5 3 4 1 4 2 7 2 5 4 1 7 7 3 4 5 5 2 2 6 9 12 12 13 13 10 12 12 13 11 10 10 11
18 18 18 17 17 17 17 17 17 17 18 18 18 16 15 21 15 6 3 2 1 1 1 1 1 2 10 4 7 4 2 3 7 9 9 8 4 3 3 1 2 1 1 0 1 2 2 3 2 4 2 4 8 7 12 13 10 5 3 4 0 1 7 6 4 2 6 5 8 5 6 7 7 0 4 10 13 15 17 16 14 14 13 12 12 11 12 11
18 18 18 18 17 18 18 17 18 18 18 18 16 16 15 5 3 3 4 2 2 2 1 2 4 5 6 1 3 7 3 5 9 5 4 4 2 1 1 1 2 1 3 4 3 7 2 2 3 3 10 11 13 13 7 2 10 5 7 6 4 7 5 7 4 1 8 4 4 6 8 9 9 4 2 6 9 12 14 15 13 13 12 12 12 11 10 11
19 18 18 18 18 17 18 17 16 17 19 10 7 5 4 4 4 1 1 1 3 5 5 5 11 6 12 17 9 3 7 6 5 3 3 3 4 3 1 2 1 1 5 7 2 7 4 7 10 15 12 9 5 7 7 1 5 9 5 5 4 4 1 2 3 3 3 4 6 7 7 7 9 9 5 9 9 6 9 13 13 11 11 11 11 12 13 13
19 18 18 18 17 18 16 17 17 15 18 3 3 3 3 4 5 5 5 9 10 9 12 11 12 14 12 10 6 6 8 6 2 5 4 4 7 1 3 3 1 5 5 4 6 1 6 8 13 7 4 9 9 7 7 4 4 7 7 6 4 3 3 2 3 0 1 4 1 6 8 10 10 9 4 6 10 12 13 13 15 15 13 12 14 14 14 12
20 20 19 19 18 18 17 16 17 18 6 2 3 1 2 2 3 1 2 7 6 12 12 15 9 12 13 16 12 3 3 8 13 16 8 7 4 7 2 4 5 10 4 2 1 2 9 15 6 4 4 8 8 7 7 7 4 2 5 3 4 3 2 5 3 2 1 3 5 3 8 9 8 3 1 8 13 9 12 15 17 17 15 13 14 14 13 8
21 20 20 19 18 19 17 16 18 8 1 2 2 1 2 4 0 0 3 9 15 8 13 11 9 14 16 11 6 7 7 10 9 9 2 1 2 7 3 5 5 5 7 7 11 6 8 6 6 6 7 9 5 8 9 7 2 3 2 3 3 2 5 3 6 2 0 3 2 6 8 4 5 2 3 4 7 3 8 9 8 10 15 17 18 17 16 16
21 21 20 20 21 20 19 19 11 4 1 2 3 3 3 1 1 1 3 5 10 6 7 7 9 6 10 8 2 10 9 3 5 11 3 4 4 4 2 5 4 5 10 12 10 7 4 1 7 8 7 10 8 9 11 8 8 2 4 4 1 1 2 3 3 3 3 1 4 5 2 3 1 2 3 4 4 1 5 7 8 8 9 8 4 5 11 16
22 22 22 21 21 23 21 17 2 0 2 5 3 3 4 4 2 3 1 5 4 7 3 2 4 5 7 2 4 6 7 5 11 2 2 4 5 3 3 3 3 9 8 7 3 1 6 6 6 10 6 7 9 9 12 10 6 3 3 6 6 3 3 2 2 3 1 2 2 4 1 4 4 5 7 1 3 5 4 10 11 11 9 9 11 13 12 12
23 22 22 21 22 22 20 6 2 1 5 6 4 1 1 1 2 3 1 2 7 2 1 2 3 2 3 1 3 3 4 4 7 11 6 4 2 2 2 4 4 9 7 9 7 3 4 2 7 12 8 7 8 7 6 11 7 7 7 6 6 5 3 2 3 2 1 5 1 1 8 4 4 4 5 6 8 8 1 9 12 10 10 11 12 11 12 13
22 24 24 23 22 21 9 2 2 1 5 4 1 1 1 0 2 2 1 2 4 1 2 1 1 1 2 3 7 3 1 5 2 6 10 10 5 2 3 4 3 0 3 3 1 7 5 6 3 6 10 8 7 9 7 11 10 5 3 10 6 4 3 2 0 2 2 2 3 2 3 4 4 7 2 3 7 8 8 11 11 12 12 13 12 11 12 12
23 24 23 22 22 16 9 8 6 6 8 4 2 1 0 1 1 0 1 3 3 2 1 1 4 1 1 3 8 7 3 2 1 2 11 5 5 1 3 5 6 6 7 8 14 1 13 6 5 6 8 7 8 4 6 8 8 4 4 10 8 6 5 3 1 2 1 2 6 4 0 1 3 6 1 5 6 9 13 13 13 13 13 14 13 12 11 11
25 24 23 24 23 21 12 5 2 8 2 1 1 1 1 2 1 1 2 3 2 2 1 1 1 4 1 4 6 8 4 2 2 1 4 5 7 2 3 4 3 5 4 8 6 1 3 9 7 5 6 8 4 6 10 9 7 3 8 4 3 4 3 5 3 2 3 1 5 4 1 2 6 4 1 3 5 9 11 14 14 14 14 14 13 13 11 9
24 23 23 25 18 6 2 1 7 10 2 4 2 1 2 1 0 0 2 4 2 2 2 2 2 1 2 4 3 4 7 3 2 2 3 3 6 1 4 1 3 4 4 3 2 6 1 5 8 5 7 4 7 4 8 8 4 5 10 6 4 3 3 1 2 2 2 4 7 6 4 4 4 6 7 8 8 10 9 6 8 10 12 13 14 13 10 10
25 25 24 22 9 6 3 4 7 6 4 3 3 2 1 1 1 2 3 3 0 2 0 2 1 2 1 1 4 3 6 4 3 2 2 3 2 4 2 1 1 4 3 3 6 7 2 0 5 2 8 3 8 4 5 10 5 11 4 5 7 1 3 2 0 2 4 5 5 4 7 5 5 4 4 9 5 6 12 12 14 16 17 17 14 12 10 9
26 27 27 17 11 6 6 3 1 1 4 5 4 3 2 1 2 3 4 1 4 1 0 2 2 2 3 2 3 1 2 2 5 2 5 6 5 7 5 5 6 9 6 9 9 5 5 3 2 5 8 11 8 8 4 7 5 9 7 8 11 2 2 3 1 5 5 4 1 3 5 2 6 9 9 8 14 12 10 12 14 17 18 13 10 11 8 8
25 28 30 13 8 3 8 4 5 3 6 7 4 2 1 3 2 5 3 2 2 0 2 1 5 2 3 4 4 4 4 3 3 4 4 6 5 6 3 4 3 1 6 6 7 8 5 0 3 3 8 9 10 12 8 7 8 8 12 9 8 5 6 6 2 0 2 4 4 5 1 3 4 9 10 15 15 14 14 14 11 8 7 7 8 7 8 8
25 26 12 7 5 6 2 6 5 4 4 3 3 3 2 1 5 4 3 3 4 1 3 2 3 8 6 5 2 1 1 3 3 4 4 6 7 7 6 6 5 2 5 6 7 10 8 6 7 7 6 9 11 10 10 3 7 5 4 10 7 4 5 4 3 5 5 7 1 2 4 5 5 8 1 6 7 6 7 3 3 5 7 8 8 9 8 9
25 16 7 5 2 4 6 5 5 5 4 4 2 2 2 4 2 2 2 1 1 3 3 1 8 6 5 4 2 3 3 1 6 2 5 6 8 5 7 7 5 2 1 11 3 3 10 1 5 8 2 11 10 5 6 8 7 3 4 7 7 10 5 5 6 6 4 4 2 2 5 6 6 3 3 4 4 4 5 5 6 7 9 10 10 11 11 11
14 7 5 2 1 1 7 5 6 7 6 3 2 2 5 4 3 1 2 1 2 3 9 11 6 4 2 3 1 1 4 3 6 2 2 5 4 7 3 2 3 6 3 6 3 6 3 4 1 12 3 14 10 7 4 8 8 5 7 9 5 5 7 5 2 1 2 2 7 1 3 4 7 8 1 4 4 1 4 6 7 8 10 11 11 11 12 11
8 9 4 3 2 4 6 7 7 7 4 3 2 4 5 3 6 3 3 2 2 1 5 5 1 1 1 2 1 2 2 1 6 4 1 4 1 3 4 2 4 4 8 3 5 1 11 3 1 10 9 6 9 12 5 6 6 6 6 6 1 2 4 4 3 2 2 4 5 2 7 3 2 6 4 5 2 2 4 6 6 7 9 12 11 12 12 12
9 7 5 3 2 5 7 8 8 5 4 4 6 9 3 3 3 7 0 0 2 2 4 2 1 1 1 1 1 3 1 1 6 4 1 4 1 4 5 3 5 7 7 2 1 2 4 2 2 8 9 6 3 10 5 4 6 10 8 5 8 4 5 2 3 0 1 1 2 1 1 2 6 7 3 4 7 9 8 6 8 10 12 13 12 12 11 11
4 2 3 2 2 6 7 7 6 6 3 5 5 5 2 8 4 4 4 6 1 3 5 3 2 1 0 1 1 2 4 2 6 4 3 2 1 4 5 3 4 6 5 7 1 1 1 4 1 2 9 5 5 9 11 10 2 1 7 8 2 6 3 5 6 4 5 3 2 3 1 5 6 6 7 9 10 10 10 10 13 15 16 14 13 12 13 13
4 2 1 2 3 4 6 5 4 4 3 6 3 6 2 6 8 9 7 6 3 3 3 3 5 2 2 2 1 2 5 3 6 4 3 1 1 1 7 5 2 4 7 8 2 0 1 1 5 4 7 7 7 8 13 12 11 5 7 7 2 1 1 6 1 3 2 4 4 3 2 5 7 8 6 9 8 13 16 16 14 13 13 12 12 13 12 12
4 1 1 2 4 6 5 4 4 6 5 4 4 6 7 6 3 4 6 6 5 6 7 4 1 2 0 3 1 1 1 2 3 4 5 4 4 1 4 7 4 2 3 2 2 2 0 1 3 4 5 10 8 4 3 8 10 5 6 6 7 6 5 9 6 2 3 1 2 4 4 6 10 2 7 6 4 11 15 13 12 10 12 12 11 12 12 12
4 3 3 2 6 6 6 4 4 3 3 6 6 2 6 6 7 8 5 4 9 6 5 4 5 5 4 3 2 3 2 2 2 3 3 4 4 2 3 9 7 4 6 3 4 4 4 2 3 6 8 6 2 6 6 10 7 5 8 7 7 4 6 5 5 4 2 1 4 3 1 7 6 4 4 4 2 4 4 3 3 3 6 7 8 8 8 9
4 4 2 5 6 4 1 4 3 3 4 4 4 9 8 8 6 4 5 1 3 3 2 4 4 2 3 1 2 2 1 0 2 3 4 3 3 9 4 7 6 5 4 2 2 3 4 0 1 1 2 2 2 1 7 9 9 4 3 3 7 8 7 8 5 6 7 1 1 1 1 4 3 1 3 3 3 4 5 7 8 6 6 7 9 10 10 9
4 4 4 1 4 2 1 3 4 4 6 8 8 12 6 6 3 6 4 2 2 1 3 1 1 4 0 3 2 1 1 1 2 1 0 3 3 6 8 6 8 5 5 4 4 2 2 2 3 4 5 4 2 4 3 2 7 6 6 4 6 4 4 2 5 2 3 5 6 6 4 4 4 1 3 1 4 5 5 5 8 8 7 8 8 9 8 8
4 3 4 2 2 3 2 1 3 7 8 10 11 12 8 3 4 7 7 7 4 5 3 3 4 3 4 5 4 1 1 0 0 3 0 1 3 1 8 9 9 5 7 3 5 4 2 2 2 5 10 11 10 10 11 10 14 4 3 7 6 9 6 5 4 1 3 1 4 3 3 9 10 4 5 2 4 4 4 5 4 7 9 10 8 9 10 9
3 5 3 2 1 2 3 2 4 4 7 7 11 5 1 4 2 4 5 7 5 5 3 3 4 6 3 2 1 1 1 1 2 1 1 1 2 1 4 9 9 6 6 9 3 4 1 1 1 3 6 9 6 2 2 6 4 7 5 11 7 5 8 5 6 5 6 3 5 7 7 5 7 6 3 1 3 6 7 7 9 9 8 9 9 10 10 10
2 2 5 7 4 3 3 2 3 1 5 5 4 4 5 2 4 5 6 1 1 2 2 5 3 1 1 1 0 1 2 1 1 1 3 2 2 2 3 7 9 10 10 9 9 2 1 2 2 4 4 7 8 4 7 11 7 4 8 9 9 8 5 7 6 6 5 9 3 5 5 2 7 6 6 4 4 3 4 4 6 9 10 11 11 10 10 10
3 1 2 2 4 5 9 4 1 9 12 2 4 2 5 9 7 2 1 4 3 2 2 1 1 3 2 2 1 3 1 1 2 2 1 1 1 4 4 3 5 9 12 2 3 3 0 1 3 1 4 6 7 4 11 10 9 8 11 10 11 9 7 8 7 5 7 5 9 4 6 4 6 7 2 2 3 1 1 2 4 7 9 10 11 12 13 13
1 2 4 4 5 4 4 13 14 10 12 7 3 2 6 8 9 3 2 4 1 1 1 2 2 3 4 2 0 1 4 1 1 1 1 0 0 1 0 2 1 7 7 3 1 2 1 5 4 1 7 6 5 5 6 16 6 10 10 12 11 10 11 11 8 5 10 5 5 4 8 9 9 5 1 4 4 4 5 7 8 10 11 12 12 12 13 14
5 5 4 2 6 9 9 7 5 7 7 5 4 3 4 6 10 8 2 2 2 0 3 1 8 3 3 4 6 4 6 5 3 2 1 2 3 2 2 2 6 3 6 4 2 1 3 5 1 1 0 2 2 1 4 11 12 9 9 11 12 12 10 6 4 1 0 1 0 2 3 7 6 3 1 1 2 7 9 9 9 9 10 12 12 13 13 15
3 3 4 8 10 5 6 5 7 8 5 4 6 8 7 9 10 12 8 7 5 3 4 6 6 5 4 8 8 10 6 4 3 3 7 4 2 1 1 2 3 6 7 3 3 0 3 4 1 1 1 2 1 4 5 8 10 9 6 6 9 8 7 3 5 6 5 5 1 2 0 5 5 1 1 2 6 9 11 10 10 10 11 12 13 13 14 14
3 4 5 4 5 5 8 7 7 5 4 3 2 10 4 11 12 12 7 2 5 7 6 7 5 4 4 2 7 11 11 9 7 9 8 7 5 4 3 3 1 8 4 2 2 2 4 2 2 1 1 2 2 2 6 6 7 4 6 8 11 4 2 3 1 3 4 8 7 4 8 5 4 3 5 1 5 7 8 10 10 9 11 12 14 15 15 14
Wind_Direction
343 341 341 341 338 336 336 334 330 328 328 331 330 331 329 330 326 326 325 323 323 325 323 325 324 323 330 332 334 332 328 326 315 308 298 255 235 251 273 275 275 266 264 62 355 16 325 9 144 26 76 107 244 106 239 156 129 99 203 146 214 172 179 191 185 190 190 187 245 221 216 150 294 334 296 351 10 89 32 50 336 35 44 52 90 116 123 125
339 338 338 338 338 336 336 332 329 334 332 325 324 323 325 325 324 322 323 323 323 320 324 324 322 322 331 331 334 333 333 314 297 286 253 257 268 270 274 273 270 261 235 262 198 145 140 292 164 125 111 158 293 184 132 238 139 182 171 166 218 176 217 172 192 192 128 229 220 105 91 129 208 98 293 32 325 60 48 2 33 76 65 84 101 117 123 127
340 338 339 337 334 336 336 336 333 336 332 331 326 323 323 325 324 323 324 323 324 323 321 321 323 322 328 334 330 336 330 308 298 269 270 235 241 298 311 313 293 247 206 189 188 166 180 190 154 120 157 137 211 191 166 245 161 228 124 208 227 205 228 205 172 202 220 179 116 25 242 125 244 223 257 63 284 96 189 148 16 119 126 121 120 121 127 129
339 338 337 334 335 334 335 332 330 331 333 332 327 328 329 323 320 323 320 323 320 323 324 322 324 326 324 331 342 329 350 292 275 238 257 33 5 351 347 347 334 233 185 187 158 157 216 268 5 133 116 167 242 140 158 233 150 242 177 202 218 201 196 241 213 234 228 185 200 144 320 357 297 229 84 175 11 285 249 207 171 180 148 135 133 132 136 136
339 337 336 336 334 332 331 331 332 332 331 332 331 327 328 322 320 318 319 316 322 323 326 324 325 326 325 331 341 6 321 347 283 142 61 23 12 3 357 359 355 157 169 160 137 284 246 199 159 89 124 185 189 143 234 229 199 129 220 177 186 141 212 241 228 224 214 169 142 311 2 252 275 32 103 130 209 256 228 206 189 170 159 148 145 147 144 143
338 339 338 336 335 334 334 335 333 333 332 332 331 328 328 328 321 318 315 314 317 320 321 323 322 324 329 346 325 14 6 241 338 274 345 15 16 4 359 2 8 90 148 134 140 161 160 272 130 148 155 136 192 179 255 200 160 232 297 229 166 191 191 245 194 230 203 265 253 297 244 187 71 256 229 162 192 234 218 224 195 154 131 141 138 141 149 157
340 339 338 337 334 334 333 332 331 330 331 330 329 329 327 325 322 320 317 313 311 320 322 325 322 319 337 335 307 94 180 278 328 237 346 5 11 2 357 356 11 36 304 126 138 130 186 165 151 182 117 168 263 185 241 177 203 212 230 68 221 175 213 197 200 207 201 192 231 208 67 247 345 315 116 273 243 247 276 267 93 114 138 141 144 160 164 170
340 340 338 337 334 333 333 330 328 328 328 328 328 327 326 321 322 320 319 313 311 313 321 322 324 316 344 340 356 313 275 250 253 311 325 356 2 355 352 354 14 12 97 237 169 173 146 156 173 155 169 163 220 163 207 209 224 211 242 243 273 194 237 247 259 276 191 232 255 6 259 240 191 224 19 283 292 254 87 105 116 125 132 144 150 165 172 170
341 339 338 336 335 334 331 329 328 327 328 328 325 325 323 323 320 320 315 313 306 304 312 319 316 325 347 36 325 321 262 238 287 300 358 351 342 347 359 344 5 19 317 351 347 201 142 213 174 178 210 196 212 161 210 160 258 190 217 181 259 242 242 229 258 281 215 246 169 142 234 268 251 328 265 268 77 133 122 117 128 134 139 156 170 173 170 165
340 339 338 337 335 332 331 328 327 328 328 327 328 327 325 321 317 315 313 310 309 307 303 315 316 324 330 298 311 324 262 286 331 2 339 343 339 337 348 6 355 352 15 332 342 125 176 207 172 201 119 192 158 207 167 177 225 195 187 210 227 249 263 241 213 239 240 204 161 178 272 256 280 143 274 18 149 123 121 129 140 146 157 166 170 167 164 165
339 337 336 336 334 332 329 330 330 327 330 329 327 326 322 320 317 309 310 311 307 305 307 305 318 321 313 253 260 251 271 332 322 339 331 333 329 334 323 326 329 321 303 313 294 247 267 170 223 76 76 224 135 238 151 222 203 140 185 175 229 249 251 259 253 254 12 294 194 184 245 262 325 163 224 175 159 141 133 145 154 160 162 164 162 166 175 183
336 335 332 332 333 331 329 332 330 330 329 325 322 321 320 318 315 316 309 311 310 304 306 305 304 328 269 262 243 233 318 288 301 307 313 325 310 295 286 275 263 243 149 288 291 272 259 272 356 355 186 149 227 182 234 227 122 228 156 208 254 245 253 233 227 232 160 253 146 156 357 314 223 207 241 156 142 144 141 155 163 165 162 159 164 168 182 190
334 332 330 329 329 331 328 329 329 331 324 320 319 318 314 315 315 310 308 304 306 303 302 304 313 71 317 278 242 252 276 286 299 308 304 292 285 271 262 256 241 232 233 217 248 241 20 313 265 242 252 91 194 140 289 98 217 81 95 144 280 282 277 243 172 191 163 235 149 135 266 256 255 240 273 160 139 143 145 155 165 163 164 166 171 180 190 182
333 332 330 330 329 328 327 325 324 324 322 325 323 315 316 312 308 304 302 300 302 304 305 303 324 302 272 257 283 284 280 278 287 298 281 300 298 296 269 246 227 208 200 218 253 265 265 269 257 231 306 178 217 310 49 335 38 176 221 110 205 174 253 270 177 159 178 203 155 135 231 265 275 280 247 190 153 151 156 165 161 164 166 171 180 186 194 198
334 333 333 330 328 326 326 322 321 323 326 325 318 316 313 307 304 300 295 294 295 303 302 336 77 1 264 272 285 260 254 266 270 254 263 290 287 320 301 26 23 195 198 201 219 209 211 198 179 189 262 207 268 13 339 12 350 160 128 225 144 184 280 289 261 158 179 269 158 118 230 243 247 258 209 183 167 154 156 164 164 164 167 174 183 195 198 199
334 336 332 333 329 326 324 321 320 321 325 324 322 318 313 304 299 295 290 280 283 287 314 45 271 161 272 291 270 325 308 225 257 246 257 193 180 237 265 289 280 263 202 237 214 232 230 138 165 196 170 84 161 123 30 49 258 338 184 273 194 143 232 346 236 183 181 122 272 166 206 322 292 246 189 170 165 164 155 160 164 173 175 177 187 198 199 190
334 333 333 332 330 325 324 320 320 323 323 326 324 317 310 302 301 298 286 276 273 273 186 212 201 164 251 216 313 310 268 256 265 323 312 197 200 213 348 312 293 339 189 264 200 167 179 150 220 119 251 148 145 124 120 250 284 243 22 157 197 167 193 224 293 263 194 161 186 227 190 226 227 1 176 179 165 159 161 167 170 176 179 186 191 200 200 201
333 333 332 331 330 326 324 323 323 324 328 327 323 315 307 303 319 327 26 42 75 119 114 42 48 316 261 257 268 261 305 301 333 307 294 289 220 197 192 218 289 255 73 64 89 136 182 176 147 206 146 186 157 154 184 209 185 153 137 130 86 107 186 195 176 250 148 203 177 188 209 239 257 39 177 202 173 163 170 172 178 182 184 187 199 201 204 205
333 333 330 328 327 326 328 327 326 329 330 330 324 312 302 327 51 51 82 69 64 1 16 205 153 164 231 224 239 316 281 292 292 261 291 8 38 124 123 234 304 137 136 153 264 160 177 112 107 107 194 193 195 184 159 162 135 164 146 165 144 161 213 197 228 270 163 132 186 166 192 234 254 249 164 211 193 178 176 177 180 183 188 193 201 206 204 211
335 334 330 330 328 326 331 326 327 327 333 334 340 335 9 5 4 337 46 138 201 197 214 170 199 252 309 291 277 211 304 314 306 244 309 4 17 4 282 183 185 84 142 181 147 197 136 181 191 203 203 184 148 156 165 156 150 143 124 149 176 149 267 262 265 252 190 110 194 184 204 221 231 232 193 192 175 184 170 177 182 187 189 198 207 210 211 212
334 334 331 331 329 326 327 327 325 326 333 2 346 45 22 334 336 319 304 252 242 236 245 237 200 219 233 266 279 4 349 314 184 278 263 280 275 312 260 156 117 158 195 147 156 260 152 205 221 197 164 160 163 148 176 92 75 134 132 154 184 151 182 225 187 250 296 180 263 191 188 217 223 228 164 173 173 180 181 184 190 192 196 199 204 210 214 217
335 334 335 333 331 329 326 322 322 322 359 103 68 73 250 218 201 265 323 298 219 229 236 241 232 252 253 254 270 309 301 286 295 277 293 168 198 148 254 158 183 188 128 148 105 163 195 213 193 159 165 132 140 148 175 182 118 66 127 134 127 251 255 288 270 245 245 129 255 165 184 223 244 301 181 181 186 194 191 187 188 189 196 201 205 208 210 205
334 332 333 336 335 330 327 322 321 343 58 23 6 197 226 230 281 30 293 274 285 216 234 236 235 240 255 262 252 140 201 228 259 285 236 117 200 185 154 180 191 139 146 179 191 169 208 230 159 160 127 128 136 150 154 201 162 115 84 69 157 237 149 245 281 10 263 153 228 170 177 264 314 308 190 213 191 206 209 211 215 208 197 197 200 198 198 205
332 333 332 334 335 333 327 324 329 57 346 271 254 217 231 181 154 19 294 286 302 295 195 224 210 229 243 239 232 181 196 229 166 271 208 199 161 193 170 190 157 166 189 188 197 189 201 211 162 139 144 135 151 158 156 166 207 119 139 141 173 127 179 142 216 315 325 50 94 101 53 329 278 221 275 241 215 211 209 221 228 228 228 228 250 224 211 209
333 333 331 328 332 332 331 324 351 100 271 300 240 249 248 248 194 157 311 286 248 265 182 269 170 239 238 97 136 174 204 231 219 238 282 161 188 144 231 157 157 209 193 170 154 216 263 270 155 144 156 149 142 168 178 154 156 176 223 172 189 187 230 296 347 38 34 244 308 183 338 286 276 262 227 233 151 225 209 206 223 221 215 209 213 211 208 219
328 329 328 327 332 331 329 307 283 225 336 299 249 247 230 228 120 141 187 302 287 259 63 281 125 286 112 222 138 200 78 256 200 227 222 223 317 185 165 207 186 206 169 150 180 205 197 270 169 166 158 160 157 166 186 155 161 153 236 179 177 167 171 61 303 67 69 192 287 57 181 259 323 271 220 189 198 212 196 213 222 223 217 211 216 210 204 209
326 327 325 328 330 330 322 303 199 284 320 306 269 256 330 201 106 137 321 230 275 332 231 52 45 251 148 203 165 166 83 290 197 195 196 224 217 191 168 214 147 260 144 137 91 233 163 222 194 171 162 160 154 175 204 160 139 203 216 173 160 152 123 174 141 123 218 248 302 37 129 206 292 285 252 169 186 211 223 224 223 220 215 217 218 212 211 210
323 323 323 325 323 322 290 293 290 280 244 214 104 42 93 166 109 332 223 353 281 152 15 277 215 89 180 178 176 192 200 30 68 236 192 174 179 319 155 205 179 174 173 159 193 21 165 204 178 185 177 171 183 172 147 149 142 213 190 160 175 166 167 158 153 273 228 39 287 324 115 162 253 260 351 149 175 226 230 225 223 221 217 217 218 217 216 213
320 319 320 320 317 311 289 246 220 258 224 95 117 2 109 74 100 83 95 263 162 153 86 144 73 331 283 161 201 238 322 337 35 355 150 131 196 146 167 238 183 173 206 190 170 249 175 195 185 162 169 189 149 152 149 151 128 215 150 126 128 138 128 162 167 246 297 85 253 254 228 181 280 274 113 173 227 231 225 220 222 216 216 214 214 216 213 206
320 321 318 320 319 297 255 224 221 240 191 131 76 58 122 64 70 56 32 264 58 269 195 263 279 241 89 147 247 258 271 304 278 37 160 158 212 282 278 174 156 163 187 158 192 204 188 180 161 169 188 162 143 161 157 163 174 143 125 98 62 56 123 112 80 131 59 245 247 224 230 148 275 257 187 165 218 210 222 230 221 221 224 220 217 210 203 199
321 317 316 317 297 297 240 240 249 232 215 112 98 84 83 34 168 105 228 249 76 264 17 251 129 113 220 153 282 229 233 256 287 187 137 255 106 185 266 193 64 116 99 118 191 249 253 305 164 209 129 162 136 143 183 174 162 140 129 128 107 32 33 93 330 62 183 262 259 217 193 171 194 288 256 230 242 209 200 207 204 207 213 213 206 201 197 187
321 317 314 312 286 257 223 212 341 48 136 134 117 83 77 10 3 172 231 24 264 281 171 283 214 248 269 234 229 204 197 195 230 181 172 190 164 177 208 186 173 145 180 170 186 216 278 213 245 150 158 157 161 142 199 192 164 160 128 118 153 224 89 259 94 217 207 178 261 192 141 49 260 236 242 227 228 227 210 216 209 206 213 207 194 192 184 173
318 316 314 306 291 200 228 150 141 87 105 127 88 62 61 101 277 232 275 353 261 137 324 113 285 258 233 274 249 229 227 246 178 219 158 178 151 218 226 217 262 126 175 170 126 165 253 349 206 246 160 184 166 165 165 177 202 153 166 163 142 143 178 196 251 143 322 290 234 154 234 273 248 290 240 241 239 219 214 216 221 215 207 177 177 175 176 176
318 318 311 292 265 228 205 174 167 119 90 73 91 34 56 68 242 238 225 218 249 339 286 281 297 291 253 232 256 152 89 241 159 187 145 156 176 187 222 252 243 332 87 136 152 174 163 231 243 177 200 168 185 186 171 139 139 184 82 151 169 117 157 174 191 178 201 198 240 271 110 230 139 235 202 244 268 259 230 216 184 158 149 150 154 166 169 175
319 310 293 298 271 226 198 182 170 134 95 77 80 125 210 243 245 247 280 268 280 293 247 348 310 305 288 210 238 249 204 207 204 177 178 170 187 189 192 220 224 192 245 139 234 104 203 219 250 185 241 165 183 170 125 118 128 218 143 87 133 208 133 138 197 141 186 227 281 170 194 188 183 242 267 284 274 252 183 162 140 149 141 146 161 175 182 183
319 322 316 280 276 223 171 149 134 130 129 103 116 181 221 218 247 196 247 198 291 288 307 302 261 265 236 280 185 293 242 219 175 188 208 184 174 190 164 191 193 182 189 163 160 162 123 224 265 174 245 174 175 156 185 146 168 198 130 188 206 157 104 90 64 71 109 58 248 186 310 286 305 316 349 1 61 23 141 156 156 159 161 160 174 179 183 183
335 334 358 320 291 138 152 140 144 128 119 139 197 243 217 258 219 256 270 225 264 21 302 310 53 246 276 230 296 147 275 278 159 158 141 165 145 198 161 227 179 154 208 129 165 197 154 228 277 169 193 253 171 169 180 188 142 123 183 229 148 100 104 132 178 355 69 162 256 124 189 249 85 257 333 20 56 188 178 172 170 159 160 174 183 181 180 180
324 318 284 261 349 133 141 144 127 109 120 188 217 242 147 251 211 214 143 316 261 188 274 280 237 149 283 12 291 151 288 134 167 147 283 144 285 161 151 183 201 178 210 207 131 232 129 172 240 201 179 181 173 156 190 215 170 163 181 190 139 211 201 307 96 156 119 210 263 301 267 259 183 242 330 270 191 204 196 171 159 171 178 186 181 179 174 173
287 302 348 9 28 129 141 147 127 128 184 225 248 279 208 232 245 244 235 261 205 283 265 220 245 179 207 278 231 76 171 161 159 154 129 207 119 209 181 166 204 205 163 143 118 244 25 140 292 215 183 163 158 169 194 185 304 9 134 177 189 111 151 137 195 171 119 230 94 283 49 216 212 227 202 232 202 185 175 180 195 189 188 182 180 177 176 176
331 9 311 35 89 113 139 140 114 165 202 246 229 230 244 268 261 256 250 239 259 196 244 270 208 278 183 266 150 132 202 162 160 143 193 211 211 203 184 176 206 170 157 169 180 142 327 129 163 212 181 123 190 198 195 172 167 160 165 171 179 349 217 107 36 128 179 168 176 171 228 278 257 215 197 227 192 189 183 191 196 193 191 185 179 174 174 173
302 207 286 74 110 122 121 123 187 205 232 262 267 265 280 269 284 248 250 221 247 208 242 261 300 241 3 358 339 272 336 179 158 142 165 227 187 123 245 188 158 161 139 117 208 202 345 17 162 158 147 197 204 192 141 161 173 144 141 180 163 105 132 158 227 5 93 91 229 127 231 266 265 179 218 232 206 189 199 195 191 190 183 179 177 177 172 168
323 5 293 131 138 165 138 180 226 214 256 259 257 214 272 288 271 273 266 226 223 247 209 251 251 267 270 247 189 193 213 147 188 135 172 173 221 188 228 209 182 158 135 179 186 225 153 156 100 165 197 180 159 146 156 158 171 159 152 190 179 141 112 124 142 217 53 236 127 168 121 267 237 208 216 254 183 194 192 171 181 170 174 174 173 167 164 166
342 272 267 153 174 177 278 248 234 230 239 255 293 279 270 273 256 295 301 224 250 213 230 206 236 227 240 209 214 205 190 142 186 167 177 165 232 212 231 200 160 138 118 221 155 231 153 107 32 327 50 123 352 1 142 153 143 142 237 128 153 181 170 160 163 182 167 206 31 317 235 252 288 234 252 242 214 158 156 167 165 161 159 164 161 164 165 160
303 297 312 139 183 216 188 298 301 270 269 279 272 277 268 259 269 296 249 257 246 129 222 247 289 212 317 207 258 258 198 80 275 106 84 186 228 216 186 196 172 188 172 224 149 237 117 285 117 117 107 162 62 47 58 183 161 190 193 191 186 146 132 147 106 109 137 222 172 118 226 284 272 333 340 119 141 147 154 164 157 151 150 150 152 157 160 158
278 236 238 288 185 206 218 232 265 294 299 304 307 300 318 248 229 245 268 269 256 259 275 249 219 150 217 194 213 250 331 164 209 287 37 173 231 193 196 172 194 199 194 193 223 144 138 200 104 131 160 169 181 173 181 183 191 174 160 163 189 165 163 115 168 106 162 259 126 139 247 254 276 332 33 73 129 127 151 147 136 143 148 148 146 153 158 164
7 341 310 307 182 202 216 250 255 272 295 320 316 310 262 291 290 243 241 284 232 246 222 280 274 261 268 222 226 88 340 235 172 294 52 312 305 301 188 186 184 217 165 209 227 109 190 153 139 149 162 188 201 197 33 82 92 177 184 168 192 190 175 143 113 108 191 199 176 222 184 267 304 289 314 279 173 163 171 159 152 145 141 140 148 154 162 166
308 46 327 329 313 199 242 199 275 204 293 337 299 330 309 285 284 303 168 251 133 161 258 190 238 334 244 122 278 61 200 299 246 333 262 270 262 259 325 195 210 196 188 210 218 44 36 347 251 157 196 208 195 186 165 151 159 145 138 179 181 181 173 152 147 202 175 107 262 262 193 155 259 277 264 245 229 196 176 155 142 142 144 151 154 149 149 160
19 32 302 32 309 310 328 336 217 302 296 281 248 320 287 317 328 309 221 234 327 266 175 312 162 204 250 212 183 89 320 297 173 211 308 229 278 332 339 229 192 187 192 202 141 168 142 261 270 129 264 226 228 243 158 150 162 165 162 164 178 181 152 172 203 200 146 181 208 243 159 193 257 243 252 243 236 229 117 130 124 130 131 139 147 151 157 166
309 300 271 351 320 280 255 279 299 295 300 306 262 298 295 317 316 322 234 299 354 294 212 296 279 232 227 215 110 169 189 106 275 293 208 254 181 317 11 67 160 192 170 145 139 174 151 261 244 224 278 291 241 220 220 150 154 151 161 171 170 157 183 184 198 182 182 209 214 186 178 222 231 244 234 226 184 142 126 130 128 138 151 150 153 159 166 175
15 341 324 295 234 280 284 285 287 306 318 333 340 321 299 310 318 327 161 189 321 329 96 158 280 296 167 192 187 205 208 187 172 170 255 164 312 198 224 173 137 164 150 168 169 250 145 277 95 48 350 286 319 189 247 151 148 158 172 166 164 174 180 193 138 157 103 350 68 116 162 275 273 207 222 263 139 120 124 134 149 149 150 158 161 168 175 183
314 275 286 310 315 290 295 307 322 319 319 342 351 333 330 321 320 317 301 191 201 195 183 214 232 275 234 215 204 227 254 215 179 199 209 173 211 227 65 281 132 145 165 150 145 273 152 264 41 51 272 301 4 147 212 161 146 139 156 154 139 131 147 185 157 203 154 201 121 115 167 267 272 225 152 129 144 146 149 149 149 159 162 161 170 178 183 187
302 266 284 286 282 302 315 316 311 304 339 6 326 315 314 304 301 317 323 232 249 220 228 265 287 300 299 270 224 224 213 226 217 215 220 223 232 268 281 271 185 149 145 179 71 156 173 176 233 79 120 268 282 102 130 101 84 117 195 193 169 156 171 164 337 180 195 145 119 143 231 218 215 167 109 173 166 165 155 160 149 154 166 170 177 186 190 189